Theta_e
334 335 335 333 335 337 337 337 336 335 335 336 335 335 333 325 319 321 318 319 319 317 316 315 316 320 322 323 322 322 321 320 320 318 323 328 326 325 325 324 324 323 323 324 325 327 328 328 327 327 326 326 326 326 328 328 328 328 328 328 327 327 327 327 326 324 322 323 324 323 323 323 323 324 324 323 322 322 322 322 322 322 323 324 325
332 334 334 332 335 336 335 336 337 336 336 336 335 335 333 323 316 317 317 318 318 316 315 316 318 320 321 322 322 321 321 320 318 314 318 325 325 325 326 326 325 325 324 325 326 326 325 325 325 325 324 324 324 324 326 326 327 327 327 327 328 327 327 327 325 323 323 323 324 324 325 324 324 323 323 322 321 320 319 319 319 319 320 322 324
332 333 333 332 334 334 334 336 336 336 336 336 335 335 332 321 314 316 317 317 316 316 317 317 320 320 320 321 321 321 322 322 318 314 316 323 326 325 326 327 326 326 325 326 325 324 323 323 323 322 321 321 322 321 323 325 326 327 327 327 328 327 327 326 325 324 323 325 325 325 326 325 324 324 323 322 320 318 318 317 318 318 319 320 322
331 331 331 332 333 332 333 334 336 336 335 335 334 333 329 319 315 316 316 316 316 318 319 319 320 321 321 321 321 321 321 322 320 318 320 322 323 324 325 325 323 322 322 323 323 322 322 321 321 320 320 320 322 322 323 324 326 327 327 327 327 328 328 327 326 325 324 326 327 326 325 324 323 324 324 323 321 319 318 317 317 317 318 319 320
330 331 331 332 332 331 331 333 335 336 335 335 333 331 325 318 316 316 316 316 318 319 320 321 320 321 322 321 321 321 321 321 319 320 322 322 322 323 323 322 318 315 315 316 317 319 320 319 319 319 318 320 322 323 323 324 325 325 326 327 327 327 327 327 327 325 326 327 326 325 325 324 324 324 323 323 321 320 319 319 318 317 317 319 320
329 331 330 331 331 330 331 333 334 335 335 333 331 330 325 317 316 316 316 316 318 320 320 320 321 321 321 320 319 319 320 321 316 314 318 320 320 321 319 318 316 314 315 316 317 319 320 320 319 318 318 319 320 321 322 322 322 324 325 326 326 326 326 326 326 326 325 326 325 325 324 324 324 323 322 321 321 320 320 320 319 318 317 317 318
329 330 330 330 330 330 330 331 333 333 333 333 331 330 324 317 316 316 315 317 317 319 321 321 322 321 320 319 318 317 319 317 311 308 310 312 314 315 314 315 315 316 317 319 320 320 320 319 318 317 318 320 320 320 320 320 321 322 324 324 324 325 325 325 325 325 324 324 324 323 322 322 323 322 320 319 319 319 320 320 320 320 320 320 319
329 330 330 330 331 329 328 328 331 332 332 331 330 328 323 317 317 316 316 318 317 317 320 322 322 321 321 320 319 319 319 314 307 307 307 307 308 310 313 315 316 316 317 319 319 319 319 319 317 317 319 321 320 319 319 319 321 322 322 322 322 322 322 322 322 323 323 323 323 323 322 322 321 319 319 318 319 319 320 319 318 318 318 318 319
329 330 331 330 330 330 328 329 330 332 332 330 329 328 324 319 318 318 318 320 317 315 318 321 322 321 320 320 320 320 318 311 307 308 307 306 306 307 311 313 314 315 316 317 318 319 318 317 317 317 319 320 319 319 318 317 320 322 322 321 321 320 320 320 320 321 322 323 323 323 321 320 319 318 318 319 320 318 315 312 309 309 311 312 313
329 330 330 330 330 330 329 330 330 331 331 330 329 328 326 323 322 319 319 321 319 316 317 319 321 321 320 319 320 319 315 308 307 308 307 307 306 306 308 311 312 313 314 316 317 317 317 315 315 315 317 318 317 318 317 316 318 320 321 320 320 320 319 319 321 321 321 321 321 320 319 318 317 318 319 320 319 314 309 306 305 306 309 313 314
328 329 329 329 329 329 330 330 330 331 330 330 330 329 328 327 325 322 322 325 322 316 314 318 320 321 320 318 317 317 312 308 308 308 307 307 306 305 306 307 309 311 313 315 315 315 314 313 313 313 314 315 314 315 316 317 318 318 319 319 319 319 317 318 320 320 319 319 318 317 315 313 312 314 316 318 314 309 306 305 305 306 307 313 317
327 327 327 328 329 329 330 330 331 331 330 330 330 329 328 328 327 326 325 325 323 319 317 319 321 322 321 317 315 314 310 308 309 308 308 307 305 305 305 305 306 307 310 312 312 311 310 309 309 308 308 308 308 308 309 311 312 313 315 317 317 315 315 317 318 318 317 315 312 309 308 307 307 308 310 310 308 305 305 305 305 305 305 313 317
325 325 326 327 328 329 330 330 331 331 331 331 330 329 330 330 328 325 324 322 320 321 320 320 321 322 320 316 313 312 311 309 308 308 308 307 305 305 304 305 305 305 307 308 308 308 306 306 306 306 306 305 305 305 305 305 306 306 308 309 310 309 310 311 311 310 309 307 305 304 304 305 305 305 305 305 304 304 304 303 303 303 304 310 316
324 324 324 325 326 328 329 329 329 329 329 329 328 329 330 331 327 324 325 322 318 318 318 319 320 321 319 316 313 313 313 312 310 308 308 307 305 305 304 305 305 305 306 306 306 306 305 306 306 306 306 306 305 306 305 305 305 305 305 305 305 306 306 306 305 305 305 305 305 305 305 304 304 304 304 303 303 302 303 302 302 302 302 306 313
324 323 323 323 323 324 325 325 326 326 326 326 327 327 328 329 327 326 326 321 317 318 320 321 320 320 319 316 315 314 314 316 314 310 309 307 305 305 305 305 305 305 305 306 306 306 306 306 306 306 306 306 306 306 306 306 306 306 305 305 305 305 305 305 305 305 305 305 305 304 304 304 303 303 303 303 303 302 303 302 302 302 301 303 308
324 324 323 322 323 322 322 322 323 324 324 325 325 326 327 326 326 327 326 321 317 318 320 320 320 319 318 315 316 316 313 316 317 312 308 307 305 306 306 305 306 306 306 306 306 306 306 306 306 306 306 306 306 306 306 306 306 305 305 305 305 304 305 305 304 304 304 304 304 303 303 303 303 304 304 304 304 303 304 303 303 304 303 303 304
323 324 324 324 324 322 323 323 322 323 323 323 324 324 325 326 326 328 328 324 318 317 319 320 317 316 316 316 317 317 313 314 318 315 309 307 306 306 306 306 306 306 307 307 307 307 307 307 306 306 306 306 306 306 306 306 305 305 305 305 305 305 305 305 304 304 304 304 304 304 304 304 305 305 305 305 305 305 306 306 306 307 307 306 306
323 325 325 325 324 322 323 323 322 323 322 323 323 323 323 325 326 328 329 325 319 318 320 319 315 313 314 315 315 316 315 313 315 316 311 307 307 307 307 307 307 307 307 308 308 309 309 308 308 308 307 307 307 307 306 306 306 306 306 306 306 306 306 306 306 305 305 305 306 306 306 306 307 308 308 307 306 307 308 308 308 308 308 308 307
322 323 322 322 321 321 321 322 322 322 322 322 322 323 323 323 325 328 329 327 323 320 319 317 315 314 313 314 315 316 316 315 315 317 314 309 308 308 307 308 308 307 307 308 309 309 310 310 310 310 310 309 309 309 308 308 307 307 307 307 307 308 307 308 307 307 307 307 307 307 307 307 308 309 309 309 308 308 308 309 309 309 308 308 307
320 320 320 319 319 319 320 321 321 322 323 324 325 325 324 323 324 327 328 328 326 324 323 320 318 317 314 314 316 317 317 316 316 317 316 311 309 309 309 309 310 309 308 308 309 309 309 309 310 310 310 310 310 309 309 309 308 308 308 308 308 308 308 308 308 308 308 307 307 308 307 307 308 308 309 309 310 310 310 310 309 309 309 308 307
319 319 319 319 319 321 322 321 322 322 322 324 326 327 326 324 324 325 326 327 326 325 324 322 320 319 317 316 317 317 316 318 318 317 317 314 310 311 313 313 313 313 312 311 311 311 310 310 311 311 312 311 312 311 311 310 310 309 309 309 309 309 308 308 308 308 308 308 308 308 308 307 307 308 308 309 310 311 311 310 310 310 309 308 308
320 320 320 320 321 323 322 323 323 322 322 322 324 326 326 325 325 325 325 325 325 325 324 322 321 321 320 318 318 317 316 317 318 318 317 316 313 312 314 315 315 315 315 314 314 314 314 314 314 315 315 315 315 315 314 313 313 313 313 313 313 313 312 311 310 309 308 308 308 307 308 307 307 307 308 308 309 310 311 310 310 310 309 309 308
320 320 321 321 322 322 322 323 323 323 323 323 323 324 324 325 325 325 325 325 324 324 324 323 322 322 321 320 319 317 316 318 319 318 317 317 314 313 313 315 316 316 316 316 316 316 316 316 316 316 316 316 316 316 315 315 315 315 315 316 316 316 316 315 314 313 312 311 310 310 309 308 307 307 307 308 308 308 310 310 310 309 309 309 309
319 320 320 320 321 321 322 322 322 323 323 323 323 324 323 324 323 324 324 324 325 324 324 324 323 322 321 320 319 317 316 317 320 319 318 317 316 314 314 315 316 316 316 316 316 316 316 317 316 316 316 316 316 316 316 316 316 316 316 316 317 317 317 317 317 316 316 315 315 314 313 312 309 308 307 308 308 308 309 309 309 309 309 310 310
318 319 319 320 321 321 321 321 321 321 321 321 322 323 323 323 322 322 323 323 324 324 324 324 323 322 320 319 319 318 316 317 319 319 318 317 316 315 315 316 316 317 316 316 316 316 316 316 317 317 317 316 316 316 316 316 316 316 316 316 316 316 317 317 317 317 317 317 317 317 316 315 314 311 309 308 309 308 308 309 309 310 310 311 311
315 315 315 316 318 319 320 320 320 319 319 320 320 321 322 322 321 321 322 322 323 323 323 323 322 322 320 319 319 318 317 318 319 318 317 317 317 316 315 316 316 317 317 316 316 316 316 316 316 317 317 316 316 316 316 316 316 316 316 316 316 316 317 317 317 317 317 317 317 317 317 316 316 314 311 310 310 310 309 309 309 310 310 311 311
314 311 309 312 317 319 319 320 320 319 319 319 320 320 321 322 321 322 321 321 321 321 322 323 323 322 321 320 320 319 320 320 320 319 318 317 318 317 316 316 317 318 317 316 316 316 316 315 316 317 317 317 316 316 316 316 317 317 316 315 315 315 316 317 317 317 317 317 317 317 317 316 316 316 314 313 312 311 310 309 309 309 310 310 310
313 311 309 311 315 317 318 319 319 319 319 319 320 320 321 321 321 322 322 321 321 320 321 322 322 322 320 319 320 320 320 320 319 318 318 318 318 317 317 318 318 317 317 316 316 316 316 315 315 316 316 317 316 316 317 317 317 317 315 314 313 314 316 316 316 316 316 317 317 317 317 317 316 316 315 314 313 313 312 310 309 309 309 309 310
312 311 311 311 313 314 315 316 317 317 318 318 319 319 320 320 321 321 321 321 321 321 320 320 321 321 320 319 319 320 320 319 318 319 318 318 318 317 317 317 316 315 315 314 314 315 316 315 315 315 316 316 316 317 317 317 317 317 315 313 312 313 314 315 315 315 315 316 317 317 317 316 316 316 315 314 313 313 312 311 310 310 309 309 310
311 311 310 310 310 310 311 313 313 313 314 315 316 316 318 319 319 319 319 320 321 321 320 321 321 320 319 319 319 319 320 319 318 318 318 318 318 317 316 316 315 315 314 314 314 315 315 314 315 316 316 317 317 317 318 317 317 316 315 314 314 314 315 316 316 316 316 316 317 317 317 317 316 315 314 314 313 312 311 310 310 310 310 310 310
309 309 309 309 309 309 309 309 310 310 310 310 310 311 312 314 315 316 316 318 319 320 320 320 320 319 319 319 318 318 319 319 318 317 317 318 318 317 315 314 315 316 315 315 316 315 315 315 315 316 317 317 317 318 317 317 316 316 315 315 315 315 315 316 316 316 316 316 317 317 317 317 316 315 314 313 312 311 310 310 309 309 309 310 310
307 307 308 308 308 308 307 307 308 307 308 307 307 308 308 309 310 310 311 312 314 317 318 319 319 319 319 318 318 317 317 317 318 318 318 317 317 317 316 315 316 317 315 315 316 316 316 316 316 316 316 316 316 316 315 315 314 315 315 315 315 315 315 316 316 317 317 317 317 317 318 317 316 315 313 312 310 310 309 309 309 309 308 309 309
306 306 307 307 306 306 306 307 307 306 306 306 306 307 307 307 307 307 308 308 309 311 313 316 317 317 317 318 318 318 318 318 319 319 319 318 317 317 316 316 316 316 315 315 315 315 315 315 316 316 315 315 315 315 315 315 315 315 315 315 315 315 315 316 316 317 318 318 318 318 318 317 315 314 313 311 310 309 309 310 309 308 308 308 308
304 305 306 306 306 306 306 306 306 306 306 306 306 306 306 306 306 306 306 307 308 308 309 312 315 315 315 317 318 318 317 318 318 318 318 318 317 317 317 316 315 314 314 314 314 315 315 315 316 315 314 314 314 313 313 313 313 312 312 311 310 309 309 309 309 311 314 316 318 318 318 317 315 312 311 311 310 309 309 310 308 307 307 307 307
301 302 304 305 306 306 306 306 306 306 306 306 306 306 306 306 306 306 306 306 307 307 308 310 312 312 313 314 316 316 316 316 317 317 317 317 316 316 316 315 314 314 314 314 315 315 315 315 315 314 313 311 309 307 306 306 306 306 305 305 304 303 302 303 304 307 310 313 316 317 317 316 314 312 311 310 309 308 309 309 307 306 306 305 306
299 300 301 302 303 304 305 306 306 306 306 306 306 306 306 306 306 306 306 306 306 306 306 308 309 308 309 312 314 315 315 315 315 315 315 315 314 314 313 314 314 314 314 314 314 314 314 313 312 310 307 304 303 302 303 303 303 304 303 303 303 302 302 302 303 305 308 311 314 316 315 314 313 312 311 309 307 308 309 308 306 305 305 305 305
300 300 300 301 301 302 303 305 305 305 305 305 305 305 305 306 306 306 306 306 306 306 306 306 307 307 308 310 313 313 313 312 312 311 312 312 312 312 312 312 312 313 313 313 313 313 312 310 307 304 303 302 303 303 303 303 304 304 304 304 304 304 304 303 303 303 305 308 312 314 314 313 313 312 310 308 307 309 309 307 305 304 304 305 305
300 301 301 301 301 301 301 303 304 305 305 305 305 305 305 305 305 306 305 305 305 305 305 306 306 306 307 308 310 311 311 311 310 310 310 310 310 310 309 309 310 310 310 310 309 309 307 305 303 303 303 303 303 304 304 305 305 305 306 306 306 306 306 305 304 305 306 308 310 312 312 312 311 310 308 307 308 308 307 305 304 304 305 305 304
299 299 299 299 300 300 300 301 302 303 304 304 305 305 305 305 305 306 306 305 304 304 305 305 305 305 305 306 307 308 308 309 309 309 309 308 307 305 305 305 305 305 305 305 305 304 304 304 304 304 304 304 305 306 307 307 307 308 308 308 308 308 308 307 305 306 308 309 309 310 310 310 309 308 307 307 307 307 305 305 304 305 305 305 303
298 298 298 297 297 298 298 299 300 301 302 302 303 305 305 305 306 306 306 305 304 305 304 304 304 304 304 305 307 307 307 308 308 307 307 307 305 304 303 303 303 302 302 303 303 303 303 303 304 304 305 307 308 308 308 308 309 309 309 310 309 309 309 308 306 306 308 309 308 308 308 307 307 307 307 306 306 305 305 304 304 305 304 303 302
298 298 297 297 297 297 297 297 298 299 300 301 301 303 304 305 305 306 307 306 306 306 305 305 305 305 305 304 305 306 308 308 307 307 307 307 306 305 305 304 303 303 303 303 303 302 302 303 303 303 305 306 307 308 309 309 309 310 309 310 309 309 309 308 306 305 306 307 308 307 307 307 306 306 306 306 305 305 304 304 303 303 302 301 300
298 298 297 297 297 297 297 297 297 298 299 299 300 300 301 302 303 304 305 306 306 306 306 306 306 306 305 305 304 305 306 307 307 308 308 308 307 306 306 305 305 305 305 305 305 305 304 304 303 303 303 303 303 305 307 308 309 309 309 309 309 309 308 308 306 305 304 305 306 306 306 306 306 305 305 305 304 303 303 302 302 301 300 299 299
297 297 297 297 297 297 297 297 297 297 298 298 298 299 299 300 301 302 302 303 304 304 305 306 306 306 305 305 305 305 305 305 305 306 306 307 307 307 307 307 307 307 307 307 307 306 305 304 304 303 303 302 302 304 307 308 309 308 308 307 307 307 307 307 306 305 304 304 304 304 304 304 304 304 304 304 303 303 302 301 300 299 298 297 296
296 296 296 296 297 296 297 297 297 297 297 297 298 298 298 299 299 300 301 301 302 302 302 303 305 306 305 305 305 305 305 304 304 304 304 305 305 306 307 307 308 308 308 307 306 305 304 303 303 303 302 302 303 305 307 308 307 305 304 304 304 306 307 307 306 305 304 304 303 303 303 302 302 302 303 302 301 300 299 298 297 296 295 295 295
296 296 296 296 296 296 296 296 296 297 297 297 297 298 298 298 298 299 300 301 301 301 301 302 303 304 304 304 304 304 305 305 305 305 305 304 304 305 306 306 307 307 306 305 304 303 302 302 302 302 303 303 304 305 306 306 305 303 303 302 302 305 306 306 305 304 304 303 302 302 301 300 300 299 299 298 297 296 296 295 295 295 295 294 294
296 296 296 296 296 296 296 296 296 296 297 297 297 297 298 298 298 298 299 300 301 301 302 302 302 302 302 302 302 303 303 304 305 305 305 305 305 304 304 304 305 305 304 303 303 302 302 302 302 302 303 303 304 305 306 305 304 303 302 301 302 304 306 305 304 303 302 301 299 298 298 297 296 295 295 295 295 295 295 294 294 294 294 294 293
294 294 295 295 295 295 296 296 296 296 297 297 297 297 297 297 297 297 298 298 299 300 301 301 302 302 302 302 302 302 302 303 303 304 304 304 304 304 304 304 304 304 304 303 302 302 302 302 302 302 303 304 306 306 306 305 303 303 302 302 303 304 305 304 302 301 299 297 296 295 295 294 294 294 294 294 294 294 294 293 293 293 293 293 293
293 294 294 294 294 294 295 295 295 296 296 297 297 297 297 297 297 297 297 298 298 299 299 300 301 302 302 302 302 302 302 302 302 303 304 304 304 304 304 304 304 304 303 303 302 302 302 302 302 303 304 306 306 305 304 304 303 303 303 303 304 304 303 301 299 297 295 295 295 294 294 294 294 294 294 293 293 293 293 293 293 293 292 292 292
293 293 293 293 293 293 294 294 295 295 295 296 297 297 297 297 297 297 297 298 298 298 298 299 299 300 301 302 302 302 302 302 303 303 303 303 303 303 304 304 303 303 302 302 301 302 302 302 302 303 305 305 304 303 304 304 304 303 304 304 304 302 300 298 296 295 295 295 295 294 294 294 294 293 293 293 293 293 293 293 293 292 292 292 292
292 292 292 292 293 293 293 293 294 294 294 295 295 296 297 297 297 297 297 298 298 298 298 298 298 299 299 300 301 301 302 302 302 303 303 303 303 303 303 303 302 302 302 302 301 301 301 301 302 303 303 303 303 304 304 304 304 303 303 303 301 299 297 295 295 295 295 294 294 294 294 294 294 293 293 293 293 293 293 293 293 293 293 293 293
291 291 291 292 292 292 292 292 292 292 292 293 294 295 296 296 296 296 297 297 298 298 298 298 298 298 298 299 299 300 300 301 301 301 301 302 302 302 302 302 301 302 302 301 301 301 302 302 302 302 302 302 303 304 304 304 303 303 302 300 297 296 295 295 295 295 294 294 294 294 294 293 293 293 293 293 293 293 293 294 294 294 293 293 293
Wind_Speed
29 28 29 27 25 26 24 24 24 25 27 26 25 23 18 15 16 16 16 15 13 11 10 8 8 8 9 8 6 4 1 1 1 0 3 6 8 9 10 10 9 9 10 12 12 12 10 8 7 8 8 8 9 10 11 13 13 13 14 14 13 13 14 15 15 14 12 13 12 10 8 7 8 9 9 9 7 6 6 7 9 11 12 13 14
31 30 30 28 27 26 25 26 27 28 30 30 27 24 19 17 19 20 20 17 14 12 12 10 9 8 9 9 7 4 2 1 3 1 3 6 7 8 10 10 10 10 11 11 12 10 8 7 7 7 7 7 8 9 10 11 12 12 13 13 14 14 14 14 14 13 12 12 10 8 6 5 7 8 8 6 5 4 4 5 8 10 13 13 13
33 33 32 30 30 29 27 27 28 29 32 32 28 24 20 19 22 23 21 18 15 14 13 12 10 9 7 7 6 4 2 2 2 2 3 7 7 8 8 9 10 10 10 10 10 8 6 5 6 5 5 5 6 7 9 10 11 11 11 11 12 13 13 13 13 13 13 12 10 7 6 5 6 5 4 3 2 2 3 4 5 7 10 12 12
36 36 34 32 33 32 30 30 31 32 34 33 29 24 20 22 25 24 22 19 16 16 15 13 12 11 8 7 6 3 3 3 1 2 5 7 7 7 7 7 8 8 8 9 8 6 5 5 5 5 5 5 5 6 7 8 9 9 9 9 9 10 11 11 11 12 13 11 9 7 6 5 4 2 2 2 2 2 3 4 5 5 5 8 9
39 38 35 34 35 34 32 32 33 35 35 32 28 23 20 24 26 24 22 19 17 17 18 15 13 12 10 9 8 5 4 4 4 6 9 9 9 8 8 8 8 8 8 7 6 6 6 5 4 4 4 5 5 5 5 5 6 8 8 8 9 9 9 10 11 11 12 12 10 6 3 2 1 1 2 2 2 3 4 4 4 4 3 3 5
40 38 36 36 35 34 32 33 34 35 33 30 26 21 20 25 27 25 22 21 19 18 19 17 14 12 10 8 7 6 6 4 3 6 9 10 10 10 10 9 8 8 7 6 6 6 6 5 3 2 3 4 4 4 4 4 4 6 7 8 8 8 8 9 10 10 11 12 9 4 3 2 2 3 3 3 4 5 5 6 6 4 3 2 3
39 38 37 37 35 33 32 33 34 34 32 29 25 21 20 25 28 26 24 22 21 19 18 18 16 14 10 6 4 5 5 5 4 5 7 8 9 9 9 9 8 7 7 7 7 8 6 5 3 1 2 3 3 4 4 3 3 3 4 5 5 5 5 5 6 6 7 8 5 3 5 5 6 7 7 7 6 5 5 7 6 5 4 4 4
41 40 38 36 35 34 33 33 34 34 32 30 27 24 23 25 27 27 26 24 23 21 18 18 18 15 12 10 8 6 6 5 7 7 6 6 7 8 9 10 10 9 8 6 6 7 6 4 3 2 3 3 3 4 3 2 2 2 2 2 1 1 2 3 3 3 4 4 3 4 5 6 7 8 7 6 5 4 5 6 5 4 5 6 6
41 40 38 35 33 34 34 34 35 35 33 31 29 27 25 26 27 28 28 26 25 24 19 18 18 15 12 11 11 9 8 6 9 8 6 5 5 7 8 9 10 9 8 7 6 5 4 2 2 3 5 4 4 3 3 3 4 4 4 5 5 3 1 1 1 1 2 2 1 3 3 3 4 4 4 3 3 5 7 9 9 7 6 5 6
38 38 36 33 32 33 34 34 35 35 34 32 31 30 28 28 30 30 30 28 27 25 22 19 19 17 14 12 12 12 9 9 10 9 6 6 5 6 8 8 8 8 8 8 7 5 3 1 2 3 4 4 2 1 2 3 4 5 5 6 7 6 5 4 4 3 3 2 2 2 1 2 3 4 4 3 4 8 10 11 11 10 10 8 6
37 35 33 32 31 32 33 33 33 34 33 33 33 32 31 31 33 33 31 30 28 27 24 20 19 18 15 12 13 12 10 11 11 8 7 6 6 7 7 8 7 7 9 9 7 5 3 2 3 3 2 2 2 1 1 2 2 3 3 3 3 4 6 6 6 6 6 5 4 2 1 2 2 3 3 4 7 10 10 10 10 9 9 7 6
34 32 31 30 31 33 33 31 30 31 31 32 34 35 35 35 37 36 32 30 30 29 24 21 20 19 15 13 12 11 10 10 10 7 7 7 7 7 8 9 8 8 9 9 8 6 6 6 6 7 7 7 6 6 6 4 4 3 3 3 3 3 4 4 4 4 3 2 1 0 1 2 2 3 4 6 7 8 9 9 9 8 6 5 5
30 29 29 29 31 34 35 32 30 30 30 31 34 35 35 33 28 28 29 30 30 28 23 21 21 18 14 12 11 11 9 8 8 8 7 7 7 8 9 9 9 10 10 10 10 9 9 10 10 11 12 12 12 12 12 11 10 8 7 6 5 5 4 4 3 3 2 1 1 1 1 2 3 3 4 5 6 7 7 8 8 8 5 4 4
26 26 26 28 31 34 35 33 32 32 31 31 33 34 35 30 21 19 23 26 27 26 23 23 22 19 13 12 12 10 7 6 6 8 8 8 8 8 10 10 9 10 11 11 11 11 11 10 11 11 12 12 12 12 13 13 12 11 10 8 7 6 5 4 4 3 2 2 2 2 2 2 3 3 4 5 5 6 7 7 7 6 5 3 2
19 20 21 23 25 28 30 31 31 32 32 32 34 34 35 33 29 27 27 28 29 27 25 25 22 17 13 13 14 10 6 8 8 7 8 8 10 11 12 12 12 12 13 13 12 12 12 11 11 12 12 11 11 11 11 11 10 10 9 7 7 7 6 5 4 4 4 3 3 3 3 4 4 4 5 5 6 6 7 8 8 7 6 4 3
16 15 15 15 17 20 23 25 26 28 29 31 33 34 34 33 34 35 34 33 34 31 29 28 21 15 14 17 18 12 7 11 13 9 8 10 13 14 14 14 14 14 15 15 15 14 14 14 13 13 13 12 11 10 10 10 9 8 8 8 8 8 7 6 6 6 6 6 5 5 5 5 5 6 6 7 8 9 9 9 9 9 9 8 6
15 13 13 14 16 17 18 20 21 23 26 29 31 32 33 34 34 37 36 35 35 33 33 31 24 20 20 20 20 15 9 11 15 12 10 13 15 15 15 15 15 15 16 16 16 16 15 15 15 14 14 13 12 11 10 11 10 9 9 9 9 9 9 8 8 8 7 7 6 6 6 6 7 8 9 10 10 11 12 11 11 12 12 12 11
16 15 15 18 20 19 18 18 18 18 20 24 27 30 32 33 35 37 36 32 32 33 32 29 27 25 24 23 21 18 15 14 16 15 13 15 17 17 16 16 15 15 15 15 15 16 15 15 15 15 14 13 12 12 11 11 11 10 10 10 9 9 9 9 9 8 7 7 6 6 6 6 8 9 10 10 10 10 11 11 12 13 13 14 14
19 18 19 20 20 19 18 17 16 15 16 18 21 24 28 31 34 37 37 34 33 33 31 29 30 28 27 28 24 20 21 21 19 18 17 17 19 19 17 16 16 15 15 14 14 14 14 14 14 14 14 13 13 12 11 11 10 10 10 9 8 8 7 7 7 6 6 5 5 5 5 5 6 7 8 8 8 9 10 10 11 12 13 14 14
16 15 16 16 15 14 14 13 14 13 13 13 13 16 22 28 32 35 37 38 36 35 33 32 33 29 26 28 25 22 26 26 24 23 21 19 19 20 18 16 16 15 14 14 13 12 12 12 12 12 11 12 12 11 10 9 9 8 8 8 7 6 5 5 4 3 3 2 2 2 3 3 4 4 5 6 6 6 7 8 9 10 11 12 13
12 12 11 12 12 12 11 9 8 7 6 6 6 8 15 22 27 31 34 37 36 35 34 34 34 30 27 27 26 25 29 29 27 27 25 21 20 20 19 17 15 14 13 13 11 10 10 10 10 9 9 9 9 10 10 9 8 8 7 7 6 6 5 4 3 1 0 0 1 1 1 1 1 1 2 3 3 4 4 5 6 7 9 10 11
11 10 10 10 10 9 7 6 4 2 1 1 2 4 8 13 17 22 27 31 32 32 32 33 34 32 31 30 28 27 30 31 30 30 28 25 22 20 19 19 17 15 12 11 10 9 9 9 8 8 8 8 8 8 8 8 7 7 6 6 6 6 5 4 4 3 2 2 2 3 4 4 3 4 4 3 3 4 3 3 4 6 7 9 11
14 13 12 10 9 8 7 5 3 1 0 1 1 2 5 8 12 16 20 23 25 28 31 32 33 33 32 31 27 28 32 33 32 31 32 31 27 22 20 20 21 18 15 13 11 9 8 8 7 7 7 7 7 6 6 5 4 4 5 6 6 6 6 5 4 3 2 2 2 4 5 5 5 6 6 5 5 5 5 4 4 6 7 8 10
14 13 11 9 8 7 7 5 4 2 1 1 2 3 5 8 10 12 15 18 21 26 29 31 31 31 30 29 28 30 33 34 33 32 33 34 32 27 24 23 24 24 21 17 14 12 10 8 8 7 6 5 4 3 3 3 4 5 5 4 4 4 5 4 4 3 2 1 2 3 5 6 7 7 7 7 7 7 7 6 6 6 7 8 10
12 11 8 7 6 5 5 4 3 2 1 2 3 5 7 9 11 12 13 16 20 25 28 28 28 27 28 30 31 32 34 34 33 32 32 33 34 32 28 28 30 30 27 20 14 15 16 13 10 9 7 5 6 6 7 8 8 7 7 7 6 6 5 5 4 3 3 3 3 3 4 6 7 8 8 9 9 9 8 8 8 8 8 9 10
10 9 8 7 6 5 5 4 3 3 2 2 2 4 8 10 12 13 14 15 18 21 23 24 25 26 29 31 32 32 32 31 32 33 31 31 35 36 32 30 32 33 31 25 18 19 22 20 15 12 10 9 9 10 11 11 11 10 10 11 11 10 9 8 8 7 7 6 6 6 7 8 8 8 8 9 9 10 10 10 10 10 10 10 11
8 8 9 8 8 8 7 6 4 3 3 3 3 3 6 9 12 14 15 16 15 17 19 20 22 25 28 30 30 29 27 28 31 32 29 28 32 36 35 32 32 33 32 26 20 21 24 21 17 14 13 13 13 13 13 13 13 13 14 16 16 14 12 12 12 12 12 10 9 9 10 11 11 10 10 10 10 10 10 11 11 11 11 11 13
7 8 9 9 9 9 8 8 6 4 3 2 3 3 4 7 10 12 13 14 13 14 17 19 21 23 25 28 28 25 23 25 27 27 27 27 27 29 30 28 25 27 29 24 20 22 24 21 17 15 15 16 15 15 15 15 15 16 17 19 18 16 15 15 15 16 15 15 13 13 13 14 14 14 13 12 12 11 11 12 11 11 11 12 14
8 9 8 8 8 8 7 7 6 5 4 3 2 1 1 3 5 6 7 9 11 14 17 21 23 22 23 26 27 24 25 29 28 26 28 29 27 25 25 25 23 22 25 24 21 23 25 23 20 19 18 16 14 15 16 16 16 17 19 20 18 17 17 18 19 19 18 17 16 16 16 17 18 17 16 15 14 13 13 13 13 12 12 13 15
12 11 10 9 8 7 7 7 6 6 5 4 3 2 2 3 4 3 4 6 9 11 14 19 22 22 22 21 21 23 28 31 29 27 27 26 26 26 26 30 30 27 26 25 22 23 25 23 20 20 19 17 16 17 18 18 19 21 22 21 19 19 21 21 20 20 19 19 19 18 18 20 21 21 19 18 17 16 15 15 15 14 13 14 17
18 15 13 11 10 9 9 9 9 8 7 6 6 4 3 1 2 3 3 5 9 10 11 15 19 21 22 21 21 25 28 26 24 25 24 22 24 25 24 25 26 24 25 24 21 21 22 20 19 18 17 17 18 19 20 21 21 21 21 20 20 21 22 21 21 21 21 20 20 20 20 21 23 24 23 21 20 18 17 17 16 15 15 15 17
22 20 18 16 15 14 12 11 10 9 7 7 6 5 6 5 4 3 4 2 3 7 10 13 15 16 18 20 22 26 28 24 21 22 22 19 21 22 21 21 22 21 22 21 19 19 19 18 19 18 16 17 18 19 20 20 20 19 20 20 21 21 21 21 22 22 22 22 21 20 21 22 25 26 25 23 21 18 17 18 18 17 16 16 18
22 20 19 19 18 18 16 14 12 10 9 8 6 5 6 6 6 6 5 6 5 3 5 9 11 12 15 17 19 22 23 21 19 18 17 15 17 18 18 19 19 18 18 18 16 16 15 14 16 17 17 17 17 17 18 18 19 19 21 22 22 23 23 24 23 23 22 22 21 20 20 21 24 26 25 24 24 22 19 19 19 17 17 18 20
22 19 17 16 15 15 15 14 12 11 9 7 6 5 4 3 4 3 3 3 4 5 5 2 5 9 13 17 19 20 19 18 16 15 14 14 15 16 16 17 16 15 15 15 15 13 11 11 12 15 15 15 15 15 16 17 18 19 21 22 23 23 24 25 25 23 22 21 20 18 18 20 22 24 24 24 25 22 18 18 18 18 18 20 21
23 20 17 15 13 12 11 11 10 8 7 6 5 5 5 2 3 3 2 1 2 2 3 3 2 4 6 10 13 16 16 14 13 13 14 15 15 16 17 16 14 13 13 13 12 11 11 12 13 13 13 13 13 14 14 14 15 16 18 19 19 19 19 20 21 20 19 19 17 15 16 19 20 22 23 23 24 21 17 16 18 19 19 20 21
21 20 18 16 15 13 10 9 9 7 5 5 4 5 7 5 3 3 3 3 2 2 2 2 1 2 2 4 6 9 10 11 13 14 15 16 17 17 18 17 15 14 13 13 13 12 12 12 12 11 11 11 11 11 11 11 12 13 13 14 14 13 14 14 15 16 16 16 15 13 14 17 19 21 23 23 24 22 18 17 19 19 19 21 23
17 16 16 16 15 14 11 9 9 9 8 8 6 4 4 5 5 3 3 3 3 3 4 2 1 1 2 5 7 9 11 12 14 15 16 17 17 17 17 16 15 15 13 13 12 12 12 11 10 8 8 8 9 10 11 12 12 12 12 13 13 13 13 13 13 13 13 13 12 12 14 16 18 20 21 23 23 22 20 19 19 19 20 22 24
16 16 16 15 15 15 14 11 10 9 10 11 10 8 6 4 5 5 2 3 5 5 5 4 3 2 4 7 9 11 12 13 14 14 14 15 15 15 16 16 15 14 13 13 12 12 11 9 7 7 7 9 10 12 13 14 15 15 15 15 15 15 15 15 14 13 13 12 11 11 13 14 16 18 21 22 22 22 21 20 20 22 23 24 25
17 18 19 19 18 17 16 15 13 12 12 12 12 11 9 7 6 7 6 1 4 4 5 6 5 3 0 6 11 13 13 14 14 14 13 13 13 13 13 13 13 13 13 12 11 11 9 8 7 7 9 10 11 13 14 16 17 17 17 17 17 17 17 16 15 13 12 11 11 12 13 14 16 18 19 19 20 20 20 21 23 24 24 25 25
21 21 22 22 22 21 20 19 17 16 16 15 14 14 13 12 11 10 8 6 4 2 2 5 5 6 7 3 8 13 15 15 15 14 13 13 12 11 10 10 10 10 10 10 10 9 8 8 8 9 10 11 13 14 15 17 17 17 17 17 17 17 16 15 14 12 11 11 12 13 14 15 16 17 18 18 19 21 22 23 24 25 25 26 26
25 26 26 27 26 24 23 21 19 18 18 17 16 16 15 15 15 15 13 11 10 9 6 4 2 3 6 7 5 8 13 14 14 14 14 14 13 11 9 9 9 9 9 9 8 8 7 7 8 10 11 12 13 14 16 17 17 17 17 17 17 17 17 16 14 13 11 11 13 14 16 17 18 18 19 20 21 21 22 23 24 25 25 25 25
26 27 28 29 29 27 25 23 21 20 19 18 17 17 16 16 16 17 17 16 16 17 16 13 12 10 7 5 6 7 8 11 13 15 16 17 15 12 11 10 11 11 10 10 10 10 9 9 10 11 12 13 13 15 16 16 16 16 16 16 17 17 18 17 15 13 12 12 13 14 16 17 18 19 19 20 20 21 22 23 24 24 25 25 26
26 27 27 27 28 27 26 25 23 22 21 20 19 19 18 18 19 18 18 18 18 18 20 21 22 19 14 11 10 9 8 9 11 13 14 15 15 15 14 14 14 14 13 13 13 12 12 11 12 12 13 13 13 14 15 15 16 16 17 17 18 18 18 17 15 14 13 13 13 13 14 15 16 17 18 19 21 22 23 24 25 25 26 27 28
26 27 27 27 28 28 28 26 25 24 23 23 23 23 22 21 21 20 20 21 20 19 20 23 25 25 21 18 16 15 14 13 11 11 12 13 14 15 16 17 17 16 15 14 13 12 12 13 14 15 14 14 14 14 14 15 15 16 17 17 18 17 17 16 15 15 14 14 13 13 14 15 16 17 18 20 21 22 23 23 24 25 25 26 27
26 27 27 28 29 29 30 30 28 27 25 24 24 25 26 26 23 20 20 22 23 23 23 23 23 24 23 22 22 22 22 21 20 19 20 19 18 17 17 17 17 17 16 15 13 13 13 14 15 16 16 15 16 16 16 16 16 16 17 17 17 17 17 16 15 16 15 14 14 14 15 16 17 18 19 20 21 21 21 21 22 22 23 24 25
28 28 29 29 30 31 31 32 31 29 28 27 25 24 26 28 27 25 22 21 20 22 25 26 25 25 25 24 24 24 24 24 25 27 27 26 25 24 22 21 21 19 17 16 15 15 16 16 16 16 16 16 17 17 17 16 16 16 17 17 18 17 16 16 16 16 15 14 14 15 16 17 18 18 18 18 19 19 20 20 20 21 22 23 25
30 30 30 30 31 33 33 34 33 31 30 30 29 27 26 27 27 27 26 25 23 22 22 23 25 27 28 29 29 28 26 24 24 25 27 27 27 27 25 24 23 22 20 19 18 18 18 18 18 17 16 16 16 16 15 15 15 16 17 17 17 16 16 16 16 15 14 13 13 14 15 15 15 16 16 17 18 18 19 19 20 22 23 25 26
30 30 30 30 32 33 34 36 36 35 33 32 32 30 29 28 28 28 27 28 28 27 25 22 21 22 24 27 30 32 31 29 26 26 28 28 27 26 26 25 24 24 23 20 19 19 19 17 16 15 14 14 14 15 15 16 16 16 16 15 15 15 15 15 14 13 13 13 13 13 13 13 14 15 15 16 17 18 19 20 22 23 23 23 24
30 29 30 30 32 33 34 36 37 36 36 36 34 33 31 30 29 28 28 28 29 30 30 28 25 22 20 20 23 27 30 31 29 27 28 28 26 24 25 24 24 23 21 18 17 17 17 15 14 13 13 13 14 15 15 15 15 15 14 14 14 14 14 13 12 12 12 12 12 12 12 12 13 14 15 16 18 19 20 21 21 21 21 21 22
30 30 30 30 31 32 34 36 37 36 36 36 36 35 34 33 31 30 28 28 28 29 30 31 31 29 26 23 20 19 21 24 24 24 25 27 27 26 25 23 21 20 17 15 14 14 14 14 13 12 13 15 16 14 14 14 13 13 13 14 13 14 14 13 12 12 11 11 11 11 11 12 14 15 16 18 19 19 19 19 19 20 21 22 23
31 31 30 29 29 30 31 33 35 34 34 35 36 36 36 35 34 33 30 29 28 28 30 32 32 32 31 30 28 25 21 19 19 19 20 22 23 23 23 22 20 19 17 15 14 14 14 14 14 14 15 16 16 15 15 14 13 12 13 14 14 13 13 12 12 11 11 10 11 11 12 13 14 16 17 17 17 17 17 18 19 20 21 22 23
Wind_Direction
200 196 193 193 189 184 185 183 177 174 176 174 172 176 184 183 181 183 182 183 186 182 177 171 169 176 186 193 195 189 182 305 298 302 177 193 195 192 193 196 204 199 192 200 207 215 227 235 234 233 237 235 232 234 234 236 238 241 242 240 237 234 236 240 244 245 237 236 241 239 239 240 245 258 270 283 293 290 276 269 266 264 263 261 259
205 199 193 192 188 186 189 186 182 180 177 175 177 183 187 183 181 180 178 181 184 181 171 162 162 169 180 188 187 174 182 299 332 352 167 180 185 186 187 186 190 188 184 188 195 201 213 223 227 231 234 233 232 233 235 240 242 243 242 240 239 235 235 238 238 234 227 227 229 225 230 240 251 260 267 276 277 282 288 282 276 270 265 262 260
205 198 192 189 187 188 192 189 186 182 177 178 185 189 186 183 181 178 176 177 181 180 169 161 167 177 184 186 183 169 174 217 333 16 150 172 178 182 186 182 182 186 187 192 196 198 201 211 223 234 241 241 240 238 237 241 241 243 245 244 244 240 236 236 233 230 227 223 222 229 241 251 261 264 275 296 286 302 326 330 315 293 275 263 259
201 196 191 190 188 191 195 192 187 183 181 186 191 193 189 186 183 178 175 175 178 177 169 169 175 181 187 185 186 183 168 180 182 129 151 172 183 187 200 203 205 210 210 213 215 215 218 223 235 241 241 234 227 229 234 238 239 243 249 252 252 249 245 242 237 229 226 223 218 224 244 260 266 268 322 328 303 309 329 349 349 329 297 269 261
197 195 192 192 192 195 198 195 189 186 188 192 193 195 196 190 184 179 176 174 178 176 171 178 181 179 188 190 194 203 192 188 191 174 170 177 186 193 209 220 228 231 228 229 225 225 231 230 238 241 231 222 213 217 224 226 231 236 240 244 248 251 247 243 240 226 221 225 221 217 247 277 277 294 329 326 313 313 317 332 345 351 344 288 265
197 196 194 195 197 198 198 197 193 191 194 195 197 203 205 195 187 183 181 179 182 180 176 184 189 188 195 196 200 213 213 208 213 200 191 192 198 205 213 216 223 220 205 196 189 195 208 206 210 227 220 216 208 199 197 198 210 219 222 226 233 240 237 241 247 236 230 234 230 229 270 293 316 316 316 314 313 311 310 316 317 329 341 306 277
199 198 197 198 199 198 199 199 198 198 200 201 204 210 209 201 193 189 188 188 191 189 183 186 195 202 209 216 220 230 233 218 187 186 192 196 202 203 200 196 201 203 189 175 167 170 180 181 176 174 186 197 188 169 163 171 185 189 194 205 218 227 228 240 256 250 245 250 248 250 258 267 289 299 304 308 310 311 319 324 318 317 319 313 305
201 201 200 201 201 201 202 201 201 202 205 207 211 211 210 207 202 197 196 196 198 199 192 189 198 206 213 225 231 233 246 223 176 169 175 182 189 190 190 193 197 204 206 191 169 163 168 164 138 122 134 147 146 132 118 105 102 116 132 148 174 212 224 232 244 235 232 242 244 240 248 268 291 299 307 311 320 345 2 0 351 343 334 323 315
202 203 203 203 204 205 205 202 201 204 207 213 214 210 209 212 212 206 202 203 203 203 199 194 200 208 216 227 230 230 233 208 177 173 172 171 179 183 188 194 192 192 195 185 170 165 163 152 117 116 124 127 125 111 76 67 85 91 85 75 71 70 74 253 267 225 209 223 221 222 239 280 320 331 333 333 359 11 2 352 353 7 20 359 331
203 204 205 206 206 207 208 206 204 206 209 215 215 212 212 216 218 212 207 208 206 204 203 197 199 207 215 225 227 227 220 198 183 178 172 171 175 178 178 181 177 164 159 160 160 165 161 121 97 118 127 123 119 95 49 64 87 90 78 66 66 71 68 57 49 73 101 99 110 122 94 12 0 356 358 359 356 349 345 346 352 14 35 36 21
204 205 207 208 207 208 212 212 210 212 213 216 216 215 216 218 220 215 210 211 210 207 205 200 200 205 212 221 226 228 218 200 193 183 177 182 179 176 171 168 168 158 151 153 154 156 144 104 86 101 116 112 104 95 90 97 96 96 91 76 75 77 76 73 74 88 97 94 97 96 34 352 337 336 337 328 327 332 340 349 357 16 38 48 52
203 205 208 209 208 210 214 215 215 217 217 219 220 221 223 223 222 215 204 200 200 200 201 199 201 205 211 222 227 228 219 207 204 194 186 191 185 175 167 160 157 156 154 151 148 139 124 110 101 103 107 107 106 105 110 117 119 131 142 135 119 102 99 101 100 102 104 95 72 20 329 334 330 330 320 312 320 332 343 351 356 14 46 79 87
204 205 207 210 211 211 214 216 217 219 221 223 224 224 222 217 213 203 193 192 193 193 197 200 201 203 208 223 230 227 221 211 206 203 198 194 187 173 165 162 154 148 145 141 136 128 118 113 108 108 110 109 108 106 105 104 105 108 112 114 110 104 110 117 122 122 121 110 82 67 40 12 349 340 332 330 341 349 356 5 7 17 47 107 132
203 205 207 212 214 212 214 218 219 221 224 225 225 224 220 217 215 209 205 206 202 198 203 202 199 199 202 220 230 223 220 224 216 206 204 193 177 161 151 151 146 137 134 133 130 128 125 122 117 114 114 115 114 111 107 104 103 102 102 107 110 109 112 115 120 124 117 100 80 61 42 28 15 5 358 0 8 7 12 25 28 35 58 95 137
198 204 207 211 215 215 218 222 222 223 225 226 226 227 227 229 232 230 222 208 198 200 205 200 193 192 197 211 216 209 210 231 235 217 206 190 164 153 145 140 138 131 129 129 128 128 129 125 122 120 117 119 119 114 111 107 102 100 99 102 106 104 104 109 113 109 101 91 80 68 54 48 42 33 27 21 20 18 21 27 34 48 65 75 90
183 194 202 208 215 219 223 225 224 223 224 226 229 229 230 232 232 233 228 210 198 200 199 195 190 185 193 204 205 207 217 227 234 230 208 188 164 152 147 140 137 132 127 125 124 125 125 123 122 122 120 120 120 116 112 106 100 97 95 94 96 94 92 96 96 94 92 89 82 73 60 54 52 47 41 34 29 27 28 32 38 44 50 55 59
170 181 198 215 222 221 223 226 227 227 227 228 231 231 230 232 232 232 229 214 202 197 192 195 196 185 188 200 204 213 225 222 228 232 213 192 174 160 156 152 146 140 132 126 123 121 120 119 118 119 120 121 120 117 113 108 104 99 94 93 92 92 93 93 90 86 84 83 80 72 64 61 59 53 45 39 36 31 29 33 36 36 37 38 37
176 183 198 216 221 220 220 223 228 231 233 233 234 235 234 235 234 232 228 216 201 192 189 198 203 189 186 198 207 218 228 223 223 225 218 201 183 170 167 163 157 152 144 135 130 125 121 119 117 116 116 117 115 112 108 106 104 99 95 92 88 87 89 92 92 90 84 78 73 69 66 62 58 55 47 40 34 29 27 28 28 29 30 29 27
175 181 192 205 212 215 218 219 222 228 236 239 239 240 240 239 237 232 229 224 212 203 203 208 207 197 192 197 205 217 224 227 228 225 220 210 193 180 176 171 166 164 161 153 145 137 131 128 125 123 121 120 118 114 111 108 106 105 103 100 96 91 87 85 86 87 85 78 68 66 63 57 54 54 50 41 31 23 22 23 22 23 25 25 21
163 171 180 189 194 200 204 208 214 217 221 227 230 237 241 240 234 229 229 231 226 221 221 218 209 204 201 200 208 218 220 224 232 230 223 216 205 193 185 181 176 171 167 163 157 151 146 141 138 136 134 133 131 128 127 124 121 120 118 117 117 114 108 100 91 80 82 82 66 53 52 49 47 48 49 43 30 20 18 21 19 18 20 19 15
155 166 174 183 182 178 177 181 193 194 192 199 194 207 230 236 233 232 233 234 231 227 226 220 212 214 216 211 217 225 221 220 229 232 227 220 216 209 201 198 194 185 178 171 162 156 153 150 146 144 141 141 141 140 141 141 142 142 139 136 137 138 139 137 136 140 189 258 324 322 317 319 322 350 15 20 15 9 11 17 13 12 15 12 9
148 156 163 173 166 152 149 150 163 178 175 179 157 178 211 228 233 236 237 236 236 235 230 223 218 222 225 223 227 229 222 219 225 232 232 225 221 219 215 214 212 205 197 189 178 165 158 157 153 150 150 149 147 148 149 150 154 161 166 168 167 166 167 164 165 182 220 251 284 302 305 298 286 285 294 305 325 335 339 349 354 357 3 2 359
141 144 147 150 138 126 125 130 138 153 223 275 277 230 224 227 229 235 238 238 240 239 233 228 225 226 229 230 231 226 218 220 227 232 233 228 222 218 218 221 222 219 215 211 205 192 178 170 167 164 166 168 165 164 164 164 178 195 199 194 189 184 180 176 172 175 197 233 284 305 310 308 296 288 291 295 304 313 316 317 327 337 343 347 349
139 138 134 127 118 113 114 119 129 137 184 259 254 243 239 235 234 238 240 240 239 236 232 230 229 230 230 228 227 221 216 220 228 231 231 228 225 218 214 218 222 223 221 217 215 215 206 193 192 199 201 204 221 228 229 273 293 279 265 246 224 210 198 190 184 188 203 226 272 298 306 307 302 296 297 302 306 308 309 307 306 313 323 333 338
143 138 132 122 115 114 117 121 124 125 170 257 255 243 235 231 234 239 242 240 237 235 234 234 233 230 225 223 224 222 218 219 223 227 228 228 227 224 220 220 221 223 223 217 213 221 220 212 212 228 246 266 281 287 295 307 307 296 285 276 267 262 254 241 233 237 245 254 270 287 296 297 298 298 296 298 304 305 302 300 298 301 310 321 328
135 128 125 126 123 122 122 114 93 68 49 356 294 256 239 233 234 237 240 240 236 233 234 235 233 227 222 222 225 223 223 222 219 220 226 227 225 225 225 224 223 222 219 215 213 222 223 219 218 232 259 282 293 299 306 308 302 297 296 291 281 272 266 267 269 270 269 272 279 285 288 290 293 295 289 287 293 297 295 293 295 297 302 309 316
118 111 112 119 121 122 117 108 95 65 44 18 352 306 259 246 242 241 239 238 238 233 228 225 225 224 223 223 225 228 230 223 214 215 224 229 229 227 227 231 233 226 219 217 224 231 230 228 228 235 257 279 288 292 297 300 297 297 302 302 293 278 267 266 269 272 274 277 284 287 287 288 290 290 286 283 286 290 291 291 291 294 298 303 311
106 97 100 111 120 125 123 120 118 108 87 48 9 333 288 267 263 258 249 242 241 233 223 221 223 227 227 222 222 232 234 220 213 216 223 226 228 225 223 228 232 224 217 224 242 246 239 238 242 247 256 270 280 282 286 291 291 293 301 305 298 285 276 272 273 274 273 272 278 284 285 285 287 287 283 279 280 284 288 289 290 295 299 302 310
91 91 94 102 109 116 119 120 120 117 114 112 117 146 231 253 255 258 252 243 240 236 231 230 231 233 231 223 220 228 229 220 219 223 224 224 225 223 223 229 236 231 224 231 246 246 237 236 243 250 254 265 277 279 280 282 281 283 293 296 292 286 286 285 283 282 279 274 276 281 283 284 285 284 282 279 278 280 285 287 289 295 299 303 310
71 76 82 88 88 92 99 102 100 92 85 84 92 121 155 187 199 212 230 216 215 227 231 232 234 235 233 226 220 220 220 217 219 225 231 233 231 230 234 238 243 243 235 233 238 235 229 233 241 248 254 263 272 274 272 272 272 276 283 284 281 282 284 285 284 283 282 279 278 280 282 282 281 279 278 278 276 277 280 283 287 291 295 303 312
67 71 77 80 79 81 86 90 90 82 75 72 62 57 68 131 218 254 267 210 200 215 226 227 230 231 230 226 216 212 217 224 228 231 239 241 233 234 239 236 233 231 229 233 236 231 231 237 240 245 255 261 265 266 266 267 270 274 277 277 278 279 278 279 280 281 283 283 281 281 279 277 275 273 273 274 273 272 274 278 283 286 289 300 311
62 67 72 74 74 73 75 81 88 88 83 81 78 83 88 82 71 42 14 6 232 235 236 234 234 231 228 227 221 219 226 235 236 232 236 237 232 234 237 229 221 221 226 232 232 230 233 234 234 241 251 253 255 259 263 267 271 274 277 279 281 283 283 282 282 281 283 283 282 281 279 275 270 268 269 269 263 259 262 273 279 281 285 298 308
53 56 61 65 67 68 71 76 82 83 76 71 75 89 98 96 85 70 54 42 28 345 276 251 243 234 225 224 224 223 224 226 228 231 232 226 223 227 227 220 218 222 228 227 220 219 221 217 222 236 244 246 253 260 265 269 273 275 279 282 284 287 287 287 286 284 283 283 283 282 281 276 266 261 262 262 260 258 262 270 275 278 287 298 304
47 46 48 51 55 61 68 74 78 81 77 75 80 74 71 111 121 94 83 80 53 26 6 315 227 219 214 213 219 225 226 225 226 227 220 209 205 209 210 210 211 213 214 212 207 204 200 199 215 230 238 248 258 264 268 273 276 279 283 285 286 287 288 288 288 287 285 285 286 285 282 277 266 257 256 259 261 261 261 267 274 279 286 293 298
42 42 40 36 35 39 48 54 57 65 73 77 89 77 59 83 127 102 72 90 114 60 29 45 136 175 195 205 213 220 223 221 213 203 197 193 190 189 191 195 196 193 191 191 190 190 191 201 218 233 247 261 271 277 282 286 288 290 291 294 296 296 294 293 293 292 291 290 290 289 285 278 265 256 256 257 254 251 253 262 271 275 281 289 294
35 36 34 30 25 19 15 10 6 10 25 32 55 72 58 55 85 113 104 94 121 132 64 37 107 132 157 187 188 187 186 180 176 177 179 181 181 180 183 186 186 183 182 181 183 191 201 218 237 252 267 278 286 292 297 300 302 301 302 308 312 312 309 307 304 300 298 296 296 295 285 271 260 257 259 254 248 252 262 269 269 272 279 287 292
18 19 21 21 19 14 3 346 341 340 337 339 347 13 34 38 43 58 109 110 114 121 108 104 210 161 166 183 182 181 178 172 171 176 180 182 183 185 187 190 192 194 196 198 203 215 226 237 249 261 275 288 296 302 306 312 314 311 313 319 323 325 326 325 322 318 313 309 306 300 287 270 260 256 252 245 247 260 273 272 268 272 281 287 290
357 355 355 356 357 358 354 344 338 328 316 319 322 318 317 335 359 1 23 110 108 101 101 118 153 176 198 202 201 199 197 192 189 190 191 194 199 203 205 207 209 210 212 215 221 227 230 235 247 265 283 293 299 304 308 313 315 316 320 324 326 329 332 333 331 327 323 320 313 301 288 272 258 249 244 245 254 264 268 266 265 272 281 286 287
345 343 342 341 339 338 336 333 332 324 313 309 304 300 299 290 295 313 313 259 132 98 73 86 97 77 90 220 219 220 220 217 214 216 219 219 218 215 212 213 213 213 213 215 217 219 224 235 253 269 281 288 294 299 302 306 311 314 318 323 326 329 333 334 331 323 318 315 305 289 275 263 254 250 250 254 259 261 263 265 269 277 283 285 283
331 329 328 327 325 323 320 319 320 319 316 313 301 289 285 279 271 275 284 274 237 236 48 79 72 34 15 319 237 227 228 232 234 236 236 226 217 212 210 211 212 211 213 216 220 225 234 247 257 264 271 278 284 291 295 299 304 307 311 316 319 323 327 327 323 315 305 296 288 279 269 262 259 261 264 266 265 265 266 269 274 281 284 283 281
316 315 315 315 313 313 312 309 309 306 304 307 304 293 284 279 270 260 259 258 249 246 238 203 215 323 346 340 301 241 225 224 227 230 226 218 217 221 223 223 220 217 218 221 226 236 248 260 268 272 275 279 282 286 290 293 296 299 303 307 311 315 319 318 314 306 296 285 278 274 272 271 272 274 274 274 272 271 271 274 278 281 280 279 279
302 303 305 305 303 303 302 299 297 296 293 293 294 291 285 282 276 268 264 260 254 252 250 242 240 247 256 276 287 268 243 226 217 214 212 211 216 221 223 226 228 229 234 239 246 255 262 269 277 282 286 288 288 288 288 289 291 294 298 302 306 308 311 311 307 300 293 285 278 274 272 273 274 274 276 277 277 276 278 279 279 278 279 281 284
298 298 299 299 298 297 295 292 289 287 285 284 284 282 280 277 274 271 269 265 260 258 259 255 250 246 242 238 239 248 262 257 240 228 220 217 220 221 219 219 223 227 234 241 248 256 264 272 282 290 294 294 292 289 287 287 290 295 300 303 304 305 305 303 299 293 288 283 279 275 273 272 273 274 275 276 277 277 276 277 278 280 284 287 289
296 296 296 297 296 294 293 291 288 284 281 280 279 278 276 272 271 271 269 265 261 258 259 258 255 251 250 250 245 241 242 242 240 245 245 238 231 225 218 215 217 223 229 236 245 257 268 279 287 292 295 296 293 288 284 284 290 298 302 302 303 303 300 295 291 287 284 281 279 277 275 274 274 274 274 273 274 275 276 278 282 286 289 291 292
296 295 294 294 293 293 291 289 287 285 282 279 276 275 273 270 268 270 269 266 262 259 257 257 255 251 251 256 257 255 250 243 238 247 257 258 250 240 231 225 225 228 234 243 254 266 274 279 284 286 289 291 288 284 280 283 291 298 301 304 304 301 295 289 287 286 284 284 284 282 279 276 275 274 274 275 277 280 283 287 290 292 294 295 296
298 296 296 294 291 290 288 286 284 283 282 280 275 271 271 269 266 265 263 262 261 259 256 254 252 249 246 248 254 259 261 255 248 249 255 257 255 252 246 240 237 237 243 255 266 274 277 279 281 282 284 283 280 277 277 282 289 293 296 299 299 295 289 287 288 289 289 290 288 284 280 278 277 279 281 283 286 289 292 294 295 296 296 295 294
301 299 297 294 291 288 286 284 281 278 278 278 275 271 269 268 266 263 259 257 257 258 256 253 251 249 247 247 251 255 258 258 255 252 250 249 247 247 245 242 241 243 251 262 271 274 274 275 278 281 282 279 274 273 279 285 288 290 292 293 291 287 286 288 291 292 291 289 285 282 280 280 282 285 287 289 290 291 292 293 293 293 293 293 293
303 301 298 295 291 288 286 284 281 279 277 276 274 272 270 268 265 263 260 257 255 256 256 254 252 250 248 246 248 249 250 252 252 249 245 242 240 241 242 241 242 246 253 260 266 267 266 268 272 277 279 277 276 280 286 287 286 286 287 285 283 282 284 288 289 286 285 283 281 281 282 284 286 288 288 289 290 291 293 296 297 297 296 296 295
300 299 297 294 291 288 286 284 282 281 279 276 272 270 269 269 267 265 262 260 257 255 255 255 254 253 249 246 244 244 243 243 243 241 240 238 237 238 239 238 239 244 248 251 257 261 264 266 268 267 267 272 280 286 286 282 281 282 280 276 276 277 279 278 275 273 274 275 277 280 283 285 287 288 289 291 294 296 299 300 300 300 299 299 300
302 300 295 291 288 286 284 282 281 280 279 276 272 268 266 266 266 265 264 262 259 256 255 254 253 252 251 250 248 244 237 233 231 231 233 235 236 235 234 235 238 240 240 243 250 257 260 262 261 258 262 272 278 277 272 269 270 271 268 266 267 269 268 265 265 267 271 275 280 285 288 289 291 292 295 297 299 301 302 302 303 304 304 305 307
307 304 299 294 290 288 286 283 282 282 280 276 272 268 264 262 262 262 262 260 256 254 254 253 253 253 252 252 252 251 247 241 236 236 236 237 236 234 233 235 236 236 235 239 243 246 249 253 256 259 266 272 269 262 260 260 258 255 256 258 259 260 261 263 265 269 275 282 287 289 289 291 293 296 298 300 303 305 308 309 310 311 312 314 316